When you browse on this site, cookies collect data to enhance your experience and personalize the content and advertising you see.
Visit our Privacy Policy to learn more. By continuing to use the site, you agree to this use of cookies and data.
  • în România
  • Lista ţărilor
  • Pe 7 zile
  • Temperatura apei
  • Hartă satelitară
  • Meteo pe hartă
  • Widget-uri
  • user-avatar
    Intrare

    Meteo pe oră la Yulara

    Astăzi, 25 Iunie, Marţi

    Timp Temperatura Precipitaţii Vânt Presiune Umiditate
    00:00 +10°C° 0 mm 3 m/s 723 mmHg 31%
    01:00 +9°C° 0 mm 3 m/s 723 mmHg 33%
    02:00 +9°C° 0 mm 3 m/s 723 mmHg 34%
    03:00 +8°C° 0 mm 3 m/s 722 mmHg 35%
    04:00 +8°C° 0 mm 3 m/s 723 mmHg 35%
    05:00 +7°C° 0 mm 3 m/s 723 mmHg 36%
    06:00 +7°C° 0 mm 3 m/s 723 mmHg 37%
    07:00 +9°C° 0 mm 3 m/s 723 mmHg 34%
    08:00 +10°C° 0 mm 3 m/s 724 mmHg 31%
    09:00 +13°C° 0 mm 2 m/s 724 mmHg 26%
    10:00 +16°C° 0 mm 2 m/s 724 mmHg 24%
    11:00 +18°C° 0 mm 2 m/s 724 mmHg 21%
    12:00 +20°C° 0 mm 2 m/s 724 mmHg 18%
    13:00 +21°C° 0 mm 2 m/s 723 mmHg 18%
    14:00 +22°C° 0 mm 3 m/s 723 mmHg 17%
    15:00 +24°C° 0 mm 3 m/s 722 mmHg 16%
    16:00 +21°C° 0 mm 3 m/s 723 mmHg 20%
    17:00 +18°C° 0 mm 3 m/s 723 mmHg 23%
    18:00 +16°C° 0 mm 3 m/s 723 mmHg 26%
    19:00 +14°C° 0 mm 3 m/s 723 mmHg 28%
    20:00 +14°C° 0 mm 4 m/s 723 mmHg 30%
    21:00 +13°C° 0 mm 4 m/s 723 mmHg 32%
    22:00 +12°C° 0 mm 4 m/s 723 mmHg 33%
    23:00 +11°C° 0 mm 4 m/s 723 mmHg 33%

    Mâine, 26 Iunie, Miercuri

    Timp Temperatura Precipitaţii Vânt Presiune Umiditate
    00:00 +10°C° 0 mm 4 m/s 723 mmHg 34%
    01:00 +8°C° 0 mm 4 m/s 723 mmHg 35%
    02:00 +9°C° 0 mm 3 m/s 723 mmHg 37%
    03:00 +8°C° 0 mm 3 m/s 723 mmHg 38%
    04:00 +8°C° 0 mm 3 m/s 723 mmHg 39%
    05:00 +7°C° 0 mm 3 m/s 723 mmHg 40%
    06:00 +7°C° 0 mm 3 m/s 724 mmHg 41%
    07:00 +8°C° 0 mm 3 m/s 724 mmHg 37%
    08:00 +10°C° 0 mm 4 m/s 724 mmHg 34%
    09:00 +12°C° 0 mm 4 m/s 724 mmHg 30%
    10:00 +14°C° 0 mm 5 m/s 724 mmHg 27%
    11:00 +16°C° 0 mm 5 m/s 724 mmHg 24%
    12:00 +19°C° 0 mm 5 m/s 723 mmHg 21%
    13:00 +20°C° 0 mm 5 m/s 723 mmHg 21%
    14:00 +20°C° 0 mm 5 m/s 722 mmHg 21%
    15:00 +21°C° 0 mm 4 m/s 721 mmHg 21%
    16:00 +19°C° 0 mm 4 m/s 721 mmHg 24%
    17:00 +17°C° 0 mm 4 m/s 721 mmHg 27%
    18:00 +14°C° 0 mm 4 m/s 721 mmHg 31%
    19:00 +13°C° 0 mm 4 m/s 722 mmHg 33%
    20:00 +12°C° 0 mm 4 m/s 722 mmHg 35%
    21:00 +11°C° 0 mm 4 m/s 722 mmHg 37%
    22:00 +10°C° 0 mm 4 m/s 722 mmHg 38%
    23:00 +10°C° 0 mm 4 m/s 722 mmHg 39%

    Poimâine, 27 Iunie, Joi

    Timp Temperatura Precipitaţii Vânt Presiune Umiditate
    00:00 +8°C° 0 mm 4 m/s 722 mmHg 40%
    01:00 +7°C° 0 mm 4 m/s 722 mmHg 44%
    02:00 +8°C° 0 mm 3 m/s 722 mmHg 47%
    03:00 +7°C° 0 mm 3 m/s 721 mmHg 51%
    04:00 +5°C° 0 mm 3 m/s 722 mmHg 56%
    05:00 +5°C° 0 mm 3 m/s 722 mmHg 61%
    06:00 +6°C° 0 mm 2 m/s 722 mmHg 65%
    07:00 +7°C° 0 mm 3 m/s 722 mmHg 60%
    08:00 +9°C° 0 mm 3 m/s 722 mmHg 54%
    09:00 +11°C° 0 mm 3 m/s 723 mmHg 49%
    10:00 +13°C° 0 mm 3 m/s 722 mmHg 42%
    11:00 +15°C° 0 mm 4 m/s 722 mmHg 36%
    12:00 +19°C° 0 mm 4 m/s 722 mmHg 29%
    13:00 +19°C° 0 mm 4 m/s 721 mmHg 26%
    14:00 +20°C° 0 mm 3 m/s 720 mmHg 24%
    15:00 +21°C° 0 mm 3 m/s 720 mmHg 21%
    16:00 +18°C° 0 mm 2 m/s 720 mmHg 27%
    17:00 +16°C° 0 mm 2 m/s 719 mmHg 33%
    18:00 +13°C° 0 mm 1 m/s 719 mmHg 39%
    19:00 +13°C° 0 mm 2 m/s 720 mmHg 40%
    20:00 +12°C° 0 mm 3 m/s 720 mmHg 40%
    21:00 +12°C° 0 mm 3 m/s 720 mmHg 41%
    22:00 +11°C° 0 mm 3 m/s 720 mmHg 43%
    23:00 +11°C° 0 mm 3 m/s 720 mmHg 45%

    28 Iunie, Vineri

    Timp Temperatura Precipitaţii Vânt Presiune Umiditate
    00:00 +10°C° 0 mm 3 m/s 720 mmHg 47%
    01:00 +9°C° 0 mm 3 m/s 720 mmHg 53%
    02:00 +9°C° 0 mm 3 m/s 719 mmHg 59%
    03:00 +8°C° 0 mm 2 m/s 719 mmHg 65%
    04:00 +8°C° 0 mm 2 m/s 719 mmHg 66%
    05:00 +8°C° 0 mm 2 m/s 719 mmHg 67%
    06:00 +7°C° 0 mm 2 m/s 720 mmHg 68%
    07:00 +10°C° 0 mm 2 m/s 720 mmHg 61%
    08:00 +13°C° 0 mm 2 m/s 720 mmHg 53%
    09:00 +15°C° 0 mm 2 m/s 721 mmHg 45%
    10:00 +17°C° 0 mm 3 m/s 720 mmHg 38%
    11:00 +19°C° 0 mm 4 m/s 720 mmHg 31%
    12:00 +22°C° 0 mm 5 m/s 720 mmHg 24%
    13:00 +23°C° 0 mm 5 m/s 720 mmHg 22%
    14:00 +23°C° 0 mm 6 m/s 719 mmHg 20%
    15:00 +24°C° 0 mm 6 m/s 719 mmHg 18%
    16:00 +22°C° 0 mm 5 m/s 719 mmHg 20%
    17:00 +20°C° 0 mm 4 m/s 719 mmHg 23%
    18:00 +18°C° 0 mm 3 m/s 719 mmHg 25%
    19:00 +17°C° 0 mm 3 m/s 719 mmHg 27%
    20:00 +17°C° 0 mm 4 m/s 720 mmHg 28%
    21:00 +15°C° 0 mm 4 m/s 720 mmHg 29%
    22:00 +14°C° 0 mm 5 m/s 720 mmHg 45%
    23:00 +11°C° 0 mm 6 m/s 721 mmHg 62%

    29 Iunie, Sâmbătă

    Timp Temperatura Precipitaţii Vânt Presiune Umiditate
    00:00 +10°C° 0 mm 7 m/s 721 mmHg 78%
    01:00 +10°C° 0 mm 7 m/s 721 mmHg 77%
    02:00 +9°C° 0 mm 7 m/s 722 mmHg 75%
    03:00 +8°C° 0 mm 6 m/s 722 mmHg 73%
    04:00 +7°C° 0 mm 5 m/s 722 mmHg 72%
    05:00 +7°C° 0 mm 4 m/s 723 mmHg 71%
    06:00 +7°C° 0 mm 3 m/s 723 mmHg 70%
    07:00 +7°C° 0 mm 4 m/s 723 mmHg 62%
    08:00 +8°C° 0 mm 5 m/s 724 mmHg 54%
    09:00 +9°C° 0 mm 5 m/s 724 mmHg 46%
    10:00 +10°C° 0 mm 6 m/s 724 mmHg 37%
    11:00 +13°C° 0 mm 6 m/s 724 mmHg 29%
    12:00 +15°C° 0 mm 6 m/s 724 mmHg 20%
    13:00 +16°C° 0 mm 6 m/s 724 mmHg 18%
    14:00 +17°C° 0 mm 6 m/s 723 mmHg 16%
    15:00 +19°C° 0 mm 6 m/s 723 mmHg 14%
    16:00 +16°C° 0 mm 6 m/s 723 mmHg 16%
    17:00 +14°C° 0 mm 5 m/s 723 mmHg 19%
    18:00 +12°C° 0 mm 5 m/s 723 mmHg 21%
    19:00 +10°C° 0 mm 5 m/s 723 mmHg 24%
    20:00 +8°C° 0 mm 5 m/s 724 mmHg 26%
    21:00 +7°C° 0 mm 5 m/s 724 mmHg 29%
    22:00 +7°C° 0 mm 4 m/s 724 mmHg 31%
    23:00 +6°C° 0 mm 4 m/s 724 mmHg 33%

    30 Iunie, Duminică

    Timp Temperatura Precipitaţii Vânt Presiune Umiditate
    00:00 +5°C° 0 mm 4 m/s 724 mmHg 36%
    01:00 +5°C° 0 mm 4 m/s 724 mmHg 38%
    02:00 +4°C° 0 mm 4 m/s 723 mmHg 41%
    03:00 +3°C° 0 mm 4 m/s 723 mmHg 43%
    04:00 +3°C° 0 mm 4 m/s 723 mmHg 48%
    05:00 +3°C° 0 mm 4 m/s 724 mmHg 53%
    06:00 +1°C° 0 mm 4 m/s 724 mmHg 57%
    07:00 +4°C° 0 mm 4 m/s 724 mmHg 54%
    08:00 +6°C° 0 mm 5 m/s 724 mmHg 51%
    09:00 +7°C° 0 mm 5 m/s 725 mmHg 48%
    10:00 +9°C° 0 mm 5 m/s 724 mmHg 41%
    11:00 +12°C° 0 mm 5 m/s 724 mmHg 34%
    12:00 +15°C° 0 mm 5 m/s 723 mmHg 27%
    13:00 +15°C° 0 mm 4 m/s 722 mmHg 24%
    14:00 +17°C° 0 mm 4 m/s 721 mmHg 21%
    15:00 +18°C° 0 mm 4 m/s 721 mmHg 19%
    16:00 +16°C° 0 mm 3 m/s 721 mmHg 22%
    17:00 +13°C° 0 mm 3 m/s 720 mmHg 25%
    18:00 +11°C° 0 mm 3 m/s 720 mmHg 29%
    19:00 +10°C° 0 mm 3 m/s 720 mmHg 31%
    20:00 +9°C° 0 mm 3 m/s 721 mmHg 34%
    21:00 +9°C° 0 mm 3 m/s 721 mmHg 37%
    22:00 +8°C° 0 mm 3 m/s 721 mmHg 40%
    23:00 +7°C° 0 mm 3 m/s 721 mmHg 44%
    Arată mai mult